• In Hungary
  • List of Countries
  • For 7 days
  • Water Temperature
  • Satellite Maps
  • Weather Map
  • News
  • Weather Widgets
  • user-avatar
    Login

    Hourly Weather Santa Catarina

    Today, 13 December, Wednesday

    Time Temperature Precipitation Wind Pressure Humidity
    00:00 +14°C° 0 mm 0 mps 732 mmHg 92%
    01:00 +14°C° 0 mm 0 mps 732 mmHg 93%
    02:00 +14°C° 0 mm 0 mps 732 mmHg 94%
    03:00 +14°C° 0 mm 0 mps 732 mmHg 95%
    04:00 +14°C° 0 mm 0 mps 732 mmHg 94%
    05:00 +15°C° 0 mm 0 mps 732 mmHg 93%
    06:00 +15°C° 0 mm 0 mps 732 mmHg 92%
    07:00 +17°C° 0 mm 0 mps 733 mmHg 82%
    08:00 +22°C° 0 mm 1 mps 733 mmHg 71%
    09:00 +24°C° 0 mm 1 mps 733 mmHg 62%
    10:00 +26°C° 0 mm 1 mps 733 mmHg 57%
    11:00 +27°C° 0 mm 1 mps 733 mmHg 53%
    12:00 +29°C° 0 mm 2 mps 733 mmHg 48%
    13:00 +29°C° 0 mm 2 mps 732 mmHg 48%
    14:00 +30°C° 0 mm 2 mps 732 mmHg 49%
    15:00 +30°C° 0 mm 2 mps 731 mmHg 49%
    16:00 +28°C° 0 mm 2 mps 731 mmHg 56%
    17:00 +27°C° 0 mm 2 mps 731 mmHg 63%
    18:00 +25°C° 0 mm 3 mps 730 mmHg 71%
    19:00 +24°C° 0 mm 2 mps 731 mmHg 78%
    20:00 +23°C° 0 mm 2 mps 731 mmHg 85%
    21:00 +21°C° 0 mm 1 mps 732 mmHg 91%
    22:00 +21°C° 0 mm 1 mps 732 mmHg 93%
    23:00 +21°C° 0 mm 1 mps 732 mmHg 94%

    Tomorrow, 14 December, Thursday

    Time Temperature Precipitation Wind Pressure Humidity
    00:00 +20°C° 0 mm 1 mps 733 mmHg 95%
    01:00 +18°C° 0 mm 0 mps 732 mmHg 96%
    02:00 +18°C° 0 mm 0 mps 732 mmHg 97%
    03:00 +18°C° 0 mm 0 mps 732 mmHg 98%
    04:00 +18°C° 0 mm 0 mps 732 mmHg 98%
    05:00 +18°C° 0 mm 0 mps 732 mmHg 97%
    06:00 +18°C° 0 mm 0 mps 732 mmHg 97%
    07:00 +20°C° 0 mm 0 mps 732 mmHg 85%
    08:00 +23°C° 0 mm 0 mps 732 mmHg 73%
    09:00 +26°C° 0 mm 0 mps 732 mmHg 60%
    10:00 +30°C° 0 mm 1 mps 732 mmHg 53%
    11:00 +33°C° 0 mm 1 mps 732 mmHg 46%
    12:00 +35°C° 0 mm 1 mps 731 mmHg 39%
    13:00 +35°C° 0 mm 1 mps 731 mmHg 40%
    14:00 +35°C° 0 mm 1 mps 730 mmHg 40%
    15:00 +35°C° 0 mm 2 mps 730 mmHg 41%
    16:00 +32°C° 0 mm 2 mps 729 mmHg 49%
    17:00 +30°C° 0 mm 1 mps 729 mmHg 57%
    18:00 +28°C° 0 mm 1 mps 729 mmHg 65%
    19:00 +27°C° 0 mm 1 mps 729 mmHg 73%
    20:00 +25°C° 0 mm 1 mps 729 mmHg 82%
    21:00 +23°C° 0 mm 1 mps 730 mmHg 90%
    22:00 +20°C° 0 mm 0 mps 730 mmHg 92%
    23:00 +20°C° 0 mm 0 mps 730 mmHg 94%

    Day after tomorrow, 15 December, Friday

    Time Temperature Precipitation Wind Pressure Humidity
    00:00 +20°C° 0 mm 0 mps 730 mmHg 96%
    01:00 +20°C° 0.1 mm 0 mps 730 mmHg 96%
    02:00 +19°C° 0.1 mm 0 mps 729 mmHg 96%
    03:00 +19°C° 0.1 mm 0 mps 729 mmHg 96%
    04:00 +19°C° 0.4 mm 0 mps 729 mmHg 96%
    05:00 +21°C° 0.4 mm 1 mps 729 mmHg 95%
    06:00 +21°C° 0.4 mm 1 mps 729 mmHg 95%
    07:00 +23°C° 0.3 mm 0 mps 730 mmHg 83%
    08:00 +26°C° 0.3 mm 0 mps 730 mmHg 71%
    09:00 +29°C° 0.3 mm 0 mps 730 mmHg 59%
    10:00 +31°C° 0.6 mm 0 mps 730 mmHg 52%
    11:00 +34°C° 0.6 mm 1 mps 730 mmHg 45%
    12:00 +36°C° 0.6 mm 1 mps 730 mmHg 38%
    13:00 +36°C° 0.1 mm 1 mps 730 mmHg 39%
    14:00 +35°C° 0.1 mm 1 mps 729 mmHg 40%
    15:00 +36°C° 0.1 mm 2 mps 729 mmHg 41%
    16:00 +32°C° 0.4 mm 2 mps 728 mmHg 51%
    17:00 +30°C° 0.4 mm 2 mps 728 mmHg 61%
    18:00 +28°C° 0.4 mm 2 mps 728 mmHg 71%
    19:00 +26°C° 0.2 mm 2 mps 728 mmHg 79%
    20:00 +24°C° 0.2 mm 1 mps 729 mmHg 86%
    21:00 +23°C° 0.2 mm 1 mps 729 mmHg 94%
    22:00 +22°C° 0 mm 1 mps 730 mmHg 95%
    23:00 +22°C° 0 mm 1 mps 730 mmHg 96%

    16 December, Saturday

    Time Temperature Precipitation Wind Pressure Humidity
    00:00 +20°C° 0 mm 0 mps 730 mmHg 96%
    01:00 +19°C° 0 mm 0 mps 730 mmHg 96%
    02:00 +19°C° 0 mm 0 mps 729 mmHg 96%
    03:00 +19°C° 0 mm 0 mps 729 mmHg 96%
    04:00 +19°C° 0 mm 0 mps 729 mmHg 96%
    05:00 +19°C° 0 mm 0 mps 729 mmHg 96%
    06:00 +19°C° 0 mm 0 mps 729 mmHg 96%
    07:00 +22°C° 0 mm 0 mps 730 mmHg 83%
    08:00 +25°C° 0 mm 0 mps 730 mmHg 70%
    09:00 +27°C° 0 mm 0 mps 730 mmHg 58%
    10:00 +31°C° 0 mm 1 mps 730 mmHg 51%
    11:00 +33°C° 0 mm 1 mps 730 mmHg 45%
    12:00 +35°C° 0 mm 1 mps 729 mmHg 38%
    13:00 +35°C° 0 mm 1 mps 729 mmHg 40%
    14:00 +35°C° 0 mm 2 mps 728 mmHg 42%
    15:00 +35°C° 0 mm 2 mps 727 mmHg 44%
    16:00 +34°C° 0.1 mm 2 mps 727 mmHg 50%
    17:00 +31°C° 0.1 mm 2 mps 727 mmHg 56%
    18:00 +30°C° 0.1 mm 2 mps 727 mmHg 62%
    19:00 +28°C° 0.1 mm 2 mps 727 mmHg 72%
    20:00 +25°C° 0.1 mm 1 mps 727 mmHg 81%
    21:00 +23°C° 0.1 mm 1 mps 727 mmHg 91%
    22:00 +23°C° 0 mm 1 mps 727 mmHg 92%
    23:00 +22°C° 0 mm 1 mps 727 mmHg 93%

    17 December, Sunday

    Time Temperature Precipitation Wind Pressure Humidity
    00:00 +22°C° 0 mm 1 mps 727 mmHg 95%
    01:00 +22°C° 0 mm 1 mps 727 mmHg 95%
    02:00 +20°C° 0 mm 0 mps 727 mmHg 95%
    03:00 +19°C° 0 mm 0 mps 727 mmHg 96%
    04:00 +19°C° 0 mm 0 mps 727 mmHg 95%
    05:00 +19°C° 0 mm 0 mps 728 mmHg 95%
    06:00 +19°C° 0 mm 0 mps 729 mmHg 94%
    07:00 +24°C° 0 mm 1 mps 729 mmHg 82%
    08:00 +27°C° 0 mm 1 mps 729 mmHg 70%
    09:00 +30°C° 0 mm 1 mps 730 mmHg 57%
    10:00 +32°C° 0.1 mm 2 mps 730 mmHg 50%
    11:00 +36°C° 0.1 mm 2 mps 730 mmHg 44%
    12:00 +38°C° 0.1 mm 2 mps 730 mmHg 37%
    13:00 +38°C° 0 mm 2 mps 729 mmHg 35%
    14:00 +37°C° 0 mm 1 mps 729 mmHg 34%
    15:00 +39°C° 0 mm 1 mps 729 mmHg 32%
    16:00 +36°C° 0 mm 1 mps 728 mmHg 39%
    17:00 +34°C° 0 mm 1 mps 728 mmHg 47%
    18:00 +32°C° 0 mm 1 mps 728 mmHg 55%
    19:00 +30°C° 0.1 mm 1 mps 729 mmHg 65%
    20:00 +27°C° 0.1 mm 1 mps 729 mmHg 76%
    21:00 +25°C° 0.1 mm 1 mps 730 mmHg 87%
    22:00 +24°C° 0.3 mm 1 mps 730 mmHg 90%
    23:00 +24°C° 0.3 mm 1 mps 730 mmHg 92%

    18 December, Monday

    Time Temperature Precipitation Wind Pressure Humidity
    00:00 +24°C° 0.3 mm 1 mps 730 mmHg 94%
    01:00 +23°C° 0 mm 1 mps 730 mmHg 95%
    02:00 +23°C° 0 mm 1 mps 730 mmHg 96%
    03:00 +23°C° 0 mm 1 mps 730 mmHg 97%
    04:00 +23°C° 0.2 mm 1 mps 731 mmHg 96%
    05:00 +21°C° 0.2 mm 0 mps 731 mmHg 96%
    06:00 +21°C° 0.2 mm 0 mps 732 mmHg 96%
    07:00 +24°C° 0.1 mm 1 mps 732 mmHg 91%
    08:00 +25°C° 0.1 mm 1 mps 732 mmHg 86%
    09:00 +26°C° 0.1 mm 1 mps 732 mmHg 81%
    10:00 +27°C° 0.1 mm 1 mps 732 mmHg 76%
    11:00 +28°C° 0.1 mm 1 mps 732 mmHg 71%
    12:00 +29°C° 0.1 mm 2 mps 732 mmHg 67%
    13:00 +29°C° 0.1 mm 2 mps 732 mmHg 67%
    14:00 +29°C° 0.1 mm 2 mps 731 mmHg 68%
    15:00 +29°C° 0.1 mm 2 mps 731 mmHg 68%
    16:00 +27°C° 0.2 mm 2 mps 731 mmHg 73%
    17:00 +26°C° 0.2 mm 2 mps 732 mmHg 78%
    18:00 +25°C° 0.2 mm 2 mps 732 mmHg 83%
    19:00 +24°C° 0.1 mm 2 mps 732 mmHg 86%
    20:00 +23°C° 0.1 mm 2 mps 732 mmHg 90%
    21:00 +22°C° 0.1 mm 1 mps 733 mmHg 93%
    22:00 +22°C° 0 mm 1 mps 732 mmHg 94%
    23:00 +22°C° 0 mm 1 mps 732 mmHg 95%
    Show more